Weather History for Henderson, NV

Change the Weather History Date:

Saturday, August 16, 2014

  Actual Average (KLAS) Record (KLAS)
Temperature  
Mean Temperature 90 °F 91 °F  
Max Temperature 104 °F 102 °F 113 °F (1939)
Min Temperature 75 °F 80 °F 58 °F (1938)
Degree Days  
Heating Degree Days 0 0  
Month to date heating degree days 0  
Since 1 June heating degree days 1  
Since 1 July heating degree days 0  
Cooling Degree Days 24 26  
Month to date cooling degree days 427  
Year to date cooling degree days 2481  
Since 1 June cooling degree days 1931  
Growing Degree Days 40 (Base 50)    
Moisture  
Dew Point 39 °F    
Average Humidity 16    
Maximum Humidity 25    
Minimum Humidity 11    
Precipitation  
Precipitation 0.00 in 0.01 in 0.51 in (2003)
Month to date precipitation 0.18  
Year to date precipitation 2.66  
Snow  
Snow 0.00 in 0.00 in 0.00 in ()
Month to date snowfall 0.0  
Since 1 June snowfall 0.0  
Since 1 July snowfall 0.0  
Snow Depth -    
Sea Level Pressure  
Sea Level Pressure 29.90 in    
Wind  
Wind Speed 10 mph (SSW)    
Max Wind Speed 13 mph    
Max Gust Speed -    
Visibility 10 miles    
Events      
T = Trace of Precipitation, MM = Missing Value Source: NWS Daily Summary

Daily Weather History Graph

Daily Weather History Graph

Search for Another Location

Airport:

Trip Planner

Search our weather history database for the weather conditions in past years. The results will help you decide how hot, cold, wet, or windy it might be!

Date:

Astronomy

Aug. 16, 2014 Rise Set
Actual Time 5:59 AM PDT 7:29 PM PDT
Civil Twilight 5:32 AM PDT 7:56 PM PDT
Nautical Twilight 5:00 AM PDT 8:28 PM PDT
Astronomical Twilight 4:25 AM PDT 9:02 PM PDT
Moon 11:30 PM PDT (8/16) 12:36 PM PDT (8/16)
Length of Visible Light 14h 23m
Length of Day
13h 29m
Waning Gibbous, 58% of the Moon is Illuminated
Aug 16
Waning Gibbous
Aug 17
Last Quarter
Aug 25
New
Sep 2
First Quarter
Sep 8
Full

Hourly Weather History & Observations

Time (PDT) Temp. Dew Point Humidity Pressure Visibility Wind Dir Wind Speed Gust Speed Precip Events Conditions
12:56 AM 79.9 °F 31.1 °F 17% 29.90 in 10.0 mi SSW 11.5 mph - N/A   Clear
1:56 AM 81.9 °F 32.0 °F 16% 29.90 in 10.0 mi South 12.7 mph - N/A   Clear
2:56 AM 79.0 °F 32.9 °F 19% 29.91 in 10.0 mi South 8.1 mph - N/A   Clear
3:56 AM 77.9 °F 34.0 °F 20% 29.91 in 10.0 mi SSW 11.5 mph - N/A   Clear
4:56 AM 75.9 °F 36.0 °F 23% 29.93 in 10.0 mi South 9.2 mph - N/A   Clear
5:56 AM 77.0 °F 37.9 °F 24% 29.94 in 10.0 mi SSW 12.7 mph - N/A   Clear
6:56 AM 79.0 °F 39.9 °F 25% 29.95 in 10.0 mi SSW 9.2 mph - N/A   Clear
7:56 AM 86.0 °F 41.0 °F 20% 29.97 in 10.0 mi SW 10.4 mph - N/A   Clear
8:56 AM 88.9 °F 41.0 °F 19% 29.98 in 10.0 mi WSW 10.4 mph - N/A   Clear
10:56 AM 95.0 °F 41.9 °F 16% 29.98 in 10.0 mi NNE 5.8 mph - N/A   Clear
11:56 AM 97.9 °F 43.9 °F 16% 29.96 in 10.0 mi NE 8.1 mph - N/A   Clear
12:56 PM 99.0 °F 45.0 °F 16% 29.94 in 10.0 mi SSW 10.4 mph - N/A   Clear
1:56 PM 100.9 °F 43.9 °F 14% 29.91 in 10.0 mi Variable 5.8 mph - N/A   Clear
2:56 PM 101.8 °F 45.9 °F 15% 29.88 in 10.0 mi WSW 11.5 mph - N/A   Clear
3:56 PM 102.9 °F 45.0 °F 14% 29.86 in 10.0 mi West 6.9 mph - N/A   Clear
4:56 PM 104.0 °F 43.9 °F 13% 29.84 in 10.0 mi Calm Calm - N/A   Clear
5:56 PM 102.9 °F 43.9 °F 13% 29.83 in 10.0 mi SW 10.4 mph - N/A   Clear
6:56 PM 100.9 °F 43.0 °F 14% 29.83 in 10.0 mi SW 6.9 mph - N/A   Clear
7:56 PM 97.9 °F 38.8 °F 13% 29.84 in 10.0 mi SW 8.1 mph - N/A   Clear
8:56 PM 93.9 °F 36.0 °F 13% 29.86 in 10.0 mi South 9.2 mph - N/A   Clear
9:56 PM 90.9 °F 29.1 °F 11% 29.87 in 10.0 mi South 6.9 mph - N/A   Clear
10:56 PM 88.0 °F 31.1 °F 13% 29.87 in 10.0 mi SSW 8.1 mph - N/A   Clear
11:56 PM 84.9 °F 31.1 °F 14% 29.88 in 10.0 mi South 8.1 mph - N/A   Clear